Regional Weather Roundup
Issued by NWS

Home | Current Version | Previous Version | Text Only | Print | Product List | Glossary Off
Versions: 1 2 3 4 5 6 7 8 9 10 11 12 13 14 15 16 17 18 19 20 21 22 23 24 25 26 27 28 29 30 31 32 33 34 35 36 37 38 39 40 41 42 43 44 45 46 47 48 49 50

000
ASUS43 KFSD 220102
RWRSD

WEATHER ROUNDUP FOR SOUTH DAKOTA
NATIONAL WEATHER SERVICE SIOUX FALLS SD
800 PM CDT TUE OCT 21 2014

NOTE: "FAIR" INDICATES FEW OR NO CLOUDS BELOW 12,000 FEET WITH NO
SIGNIFICANT WEATHER AND/OR OBSTRUCTIONS TO VISIBILITY.


SDZ001>005-009-010-012>017-220200-
NORTHWEST AND NORTH CENTRAL SOUTH DAKOTA

CITY           SKY/WX    TMP DP  RH WIND       PRES   REMARKS
FAITH            N/A     65  47  52 S14       29.70R
MOBRIDGE       PTCLDY    72  41  32 SE20      29.70R
$$

SDZ012>016-024>037-041>051-057-063-072>074-220200-
SOUTHWEST AND SOUTH CENTRAL SOUTH DAKOTA

CITY           SKY/WX    TMP DP  RH WIND       PRES   REMARKS
RAPID CTY ARPT PTCLDY    68  46  45 S12       29.74R
PIERRE         CLEAR     71  36  27 SE16      29.76R
CUSTER         MOCLDY    61  37  41 W7        29.89R
ELLSWORTH AFB  PTCLDY    67  44  44 SW6       29.74R
PHILIP         CLEAR     70  49  47 S14       29.73R
PINE RIDGE     PTCLDY    69  48  47 S12       29.80R
SPEARFISH      FAIR      61  41  48 S14       29.76S
WINNER         FAIR      71  43  36 S15       29.83S
$$

SDZ004>011-016>023-039-040-220200-
NORTHEAST SOUTH DAKOTA

CITY           SKY/WX    TMP DP  RH WIND       PRES   REMARKS
ABERDEEN       CLEAR     67  44  43 SE16      29.84R
WATERTOWN      CLEAR     63  42  46 SE14      29.94R
SISSETON         N/A     59  42  53 S14       29.93R
$$

SDZ017-020-022-023-036>040-048>070-220200-
SOUTHEAST SOUTH DAKOTA

CITY           SKY/WX    TMP DP  RH WIND       PRES   REMARKS
SIOUX FALLS    CLEAR     66  42  41 SE17      29.99R
HURON          CLEAR     69  39  33 SE9       29.88R
CHAMBERLAIN    CLEAR     66  37  33 SE13      29.85S
MITCHELL         N/A     68  42  38 SE15      29.91R
YANKTON        CLEAR     64  45  48 SE10      29.96R
$$

ABBREVIATIONS USED IN REMARKS
   TC - TEMPERATURE IN CELSIUS
  WCI - WIND CHILL INDEX
   HX - HEAT INDEX
  VSB - VISIBILITY




USA.gov is the U.S. government's official web portal to all federal, state and local government web resources and services.